Gage, OK

7:34 PM CDT on October 23, 2017 (GMT -0500)
Gage

Weather History for KGAG - May, 2014

Change the Weather History Date:

Monday, May 26, 2014

  Actual Average Record
Temperature  
Mean Temperature 68 °F -  
Max Temperature 80 °F 80 °F 101 °F (1953)
Min Temperature 57 °F 55 °F 43 °F (1992)
Cooling Degree Days 3    
Growing Degree Days 18 (Base 50)    
Moisture  
Dew Point 55 °F    
Average Humidity 73    
Maximum Humidity 97    
Minimum Humidity 39    
Precipitation  
Precipitation 0.02 in - - ()
Sea Level Pressure  
Sea Level Pressure 29.93 in    
Wind  
Wind Speed 9 mph (South)    
Max Wind Speed 20 mph    
Max Gust Speed 26 mph    
Visibility 10 miles    
Events Rain    
Averages and records for this station are not official NWS values.
T = Trace of Precipitation, MM = Missing Value Source: NWS Daily Summary

Daily Weather History Graph

Daily Weather History Graph

Search for Another Location

Airport or City:

Trip Planner

Search our weather history database for the weather conditions in past years. The results will help you decide how hot, cold, wet, or windy it might be!

Date:

Astronomy

May. 26, 2014 Rise Set
Actual Time 6:25 AM CDT 8:47 PM CDT
Civil Twilight 5:55 AM CDT 9:16 PM CDT
Nautical Twilight 5:19 AM CDT 9:53 PM CDT
Astronomical Twilight 4:39 AM CDT 10:33 PM CDT
Moon 5:04 AM CDT (5/26) 6:55 PM CDT (5/26)
Length of Visible Light 15h 20m
Length of Day
14h 21m
Waning Crescent, 5% of the Moon is Illuminated
May 26
Waning Crescent
May 28
New
Jun 5
First Quarter
Jun 12
Full
Jun 19
Last Quarter

Hourly Weather History & Observations

Time (CDT) Temp. Dew Point Humidity Pressure Visibility Wind Dir Wind Speed Gust Speed Precip Events Conditions
12:53 AM 60.1 °F 57.0 °F 90% 29.93 in 10.0 mi South 8.1 mph - N/A   Clear
1:53 AM 59.0 °F 57.0 °F 93% 29.92 in 10.0 mi South 9.2 mph - N/A   Clear
2:53 AM 59.0 °F 57.0 °F 93% 29.92 in 10.0 mi South 8.1 mph - N/A   Clear
3:53 AM 61.0 °F 57.9 °F 90% 29.93 in 10.0 mi South 9.2 mph - N/A   Scattered Clouds
4:53 AM 59.0 °F 57.0 °F 93% 29.92 in 10.0 mi SSW 5.8 mph - N/A   Clear
5:53 AM 57.9 °F 57.0 °F 97% 29.91 in 10.0 mi SE 6.9 mph - N/A   Clear
6:53 AM 57.9 °F 57.0 °F 97% 29.93 in 10.0 mi South 13.8 mph - N/A   Partly Cloudy
7:53 AM 61.0 °F 55.9 °F 83% 29.94 in 10.0 mi South 9.2 mph - N/A   Clear
8:53 AM 63.0 °F 57.0 °F 81% 29.94 in 10.0 mi SSW 8.1 mph - N/A   Clear
9:53 AM 63.0 °F 55.9 °F 78% 29.99 in 10.0 mi SSW 13.8 mph - N/A   Overcast
10:53 AM 61.0 °F 55.9 °F 83% 29.95 in 10.0 mi Variable 3.5 mph - 0.02 in Rain Light Rain
11:53 AM 64.4 °F 57.2 °F 77% 30.02 in 10.0 mi WSW 6.9 mph - N/A   Clear
12:53 PM 69.1 °F 54.0 °F 58% 29.96 in 10.0 mi Calm Calm - N/A   Scattered Clouds
1:53 PM 72.0 °F 54.0 °F 53% 29.95 in 10.0 mi Variable 5.8 mph - N/A   Partly Cloudy
2:53 PM 77.0 °F 55.9 °F 48% 29.91 in 10.0 mi SSE 10.4 mph 18.4 mph N/A   Partly Cloudy
3:53 PM 79.0 °F 53.1 °F 40% 29.88 in 10.0 mi South 15.0 mph - N/A   Mostly Cloudy
4:53 PM 78.1 °F 51.1 °F 39% 29.87 in 10.0 mi South 16.1 mph 26.5 mph N/A   Clear
5:53 PM 75.0 °F 52.0 °F 44% 29.88 in 10.0 mi South 17.3 mph - N/A   Partly Cloudy
6:53 PM 72.0 °F 53.1 °F 51% 29.89 in 10.0 mi South 19.6 mph - N/A   Mostly Cloudy
7:53 PM 71.1 °F 53.1 °F 53% 29.89 in 10.0 mi South 15.0 mph - N/A   Overcast
8:53 PM 66.9 °F 55.0 °F 66% 29.90 in 10.0 mi SSW 4.6 mph - N/A   Clear
9:53 PM 62.6 °F 55.4 °F 77% 29.96 in 10.0 mi SSW 5.8 mph - N/A   Clear
10:53 PM 62.1 °F 55.0 °F 78% 29.94 in 10.0 mi SSE 6.9 mph - N/A   Mostly Cloudy
11:53 PM 62.1 °F 57.0 °F 84% 29.93 in 10.0 mi SSE 6.9 mph - 0.00 in Rain Light Rain